Auburn, IN

9:05 PM EDT on June 26, 2017 (GMT -0400)
Auburn

Weather History for KGWB - November, 2012

Change the Weather History Date:

Monday, November 19, 2012

  Actual Average (KFWA) Record (KFWA)
Temperature  
Mean Temperature 42 °F -  
Max Temperature 55 °F 47 °F 75 °F (1930)
Min Temperature 28 °F 33 °F 11 °F (1914)
Degree Days  
Heating Degree Days 24    
Moisture  
Dew Point 31 °F    
Average Humidity 69    
Maximum Humidity 93    
Minimum Humidity 41    
Precipitation  
Precipitation 0.00 in - - ()
Sea Level Pressure  
Sea Level Pressure 30.29 in    
Wind  
Wind Speed 1 mph (East)    
Max Wind Speed 5 mph    
Max Gust Speed -    
Visibility 8 miles    
Events      
Averages and records for this station are not official NWS values.
T = Trace of Precipitation, MM = Missing Value Source: NWS Daily Summary

Daily Weather History Graph

Daily Weather History Graph

Search for Another Location

Airport or City:

Trip Planner

Search our weather history database for the weather conditions in past years. The results will help you decide how hot, cold, wet, or windy it might be!

Date:

Astronomy

Nov. 19, 2012 Rise Set
Actual Time 7:33 AM EST 5:17 PM EST
Civil Twilight 7:03 AM EST 5:47 PM EST
Nautical Twilight 6:30 AM EST 6:21 PM EST
Astronomical Twilight 5:57 AM EST 6:53 PM EST
Moon 12:34 PM EST (11/19) 11:45 PM EST (11/19)
Length of Visible Light 10h 43m
Length of Day
9h 43m
Waxing Crescent, 40% of the Moon is Illuminated
Nov 19
Waxing Crescent
Nov 20
First Quarter
Nov 28
Full
Dec 6
Last Quarter
Dec 13
New

Hourly Weather History & Observations

Time (EST) Temp. Windchill Dew Point Humidity Pressure Visibility Wind Dir Wind Speed Gust Speed Precip Events Conditions
12:15 AM 33.8 °F 29.6 °F 30.2 °F 87% 30.39 in 7.0 mi East 4.6 mph - N/A   Clear
12:55 AM 32.0 °F - 30.2 °F 93% 30.39 in 7.0 mi Calm Calm - N/A   Clear
1:15 AM 32.0 °F 28.7 °F 30.2 °F 93% 30.38 in 5.0 mi ENE 3.5 mph - N/A   Clear
1:55 AM 32.0 °F - 30.2 °F 93% 30.37 in 5.0 mi Calm Calm - N/A   Clear
2:15 AM 32.0 °F - 30.2 °F 93% 30.37 in 5.0 mi Calm Calm - N/A   Clear
2:35 AM 32.0 °F - 28.4 °F 87% 30.38 in 5.0 mi Calm Calm - N/A   Clear
2:55 AM 32.0 °F - 30.2 °F 93% 30.37 in 4.0 mi Calm Calm - N/A   Clear
3:15 AM 32.0 °F - 28.4 °F 87% 30.37 in 4.0 mi Calm Calm - N/A   Clear
3:35 AM 30.2 °F - 28.4 °F 93% 30.37 in 4.0 mi Calm Calm - N/A   Clear
3:55 AM 32.0 °F - 28.4 °F 87% 30.36 in 4.0 mi Calm Calm - N/A   Clear
4:15 AM 30.2 °F - 28.4 °F 93% 30.35 in 4.0 mi Calm Calm - N/A   Clear
4:35 AM 30.2 °F - 28.4 °F 93% 30.35 in 4.0 mi Calm Calm - N/A   Clear
4:55 AM 32.0 °F - 30.2 °F 93% 30.35 in 5.0 mi Calm Calm - N/A   Clear
5:15 AM 32.0 °F - 30.2 °F 93% 30.35 in 5.0 mi Calm Calm - N/A   Clear
5:35 AM 32.0 °F 28.7 °F 28.4 °F 87% 30.35 in 4.0 mi ENE 3.5 mph - N/A   Clear
5:55 AM 28.4 °F - 26.6 °F 93% 30.35 in 3.0 mi Calm Calm - N/A   Clear
6:15 AM 30.2 °F - 28.4 °F 93% 30.35 in 5.0 mi Calm Calm - N/A   Clear
6:35 AM 30.2 °F - 28.4 °F 93% 30.35 in 4.0 mi Calm Calm - N/A   Clear
6:55 AM 30.2 °F - 26.6 °F 86% 30.34 in 3.0 mi Calm Calm - N/A   Clear
7:15 AM 28.4 °F - 26.6 °F 93% 30.35 in 2.5 mi Calm Calm - N/A   Clear
7:35 AM 30.2 °F - 28.4 °F 93% 30.35 in 4.0 mi Calm Calm - N/A   Clear
7:55 AM 30.2 °F - 28.4 °F 93% 30.35 in 2.5 mi Calm Calm - N/A   Clear
8:15 AM 30.2 °F - 28.4 °F 93% 30.35 in 2.0 mi Calm Calm - N/A   Clear
8:35 AM 32.0 °F 28.7 °F 30.2 °F 93% 30.35 in 2.0 mi East 3.5 mph - N/A   Clear
8:55 AM 32.0 °F - 30.2 °F 93% 30.35 in 3.0 mi Calm Calm - N/A   Clear
9:15 AM 33.8 °F - 32.0 °F 93% 30.35 in 3.0 mi Calm Calm - N/A   Clear
9:55 AM 37.4 °F 34.9 °F 32.0 °F 81% 30.35 in 7.0 mi ENE 3.5 mph - N/A   Clear
10:15 AM 37.4 °F 34.9 °F 32.0 °F 81% 30.34 in 7.0 mi ENE 3.5 mph - N/A   Clear
10:35 AM 41.0 °F - 32.0 °F 70% 30.35 in 7.0 mi Calm Calm - N/A   Clear
10:55 AM 41.0 °F - 32.0 °F 70% 30.35 in 10.0 mi Calm Calm - N/A   Clear
11:15 AM 42.8 °F - 32.0 °F 66% 30.35 in 10.0 mi Calm Calm - N/A   Clear
11:35 AM 44.6 °F - 32.0 °F 61% 30.33 in 10.0 mi Calm Calm - N/A   Clear
11:55 AM 46.4 °F - 32.0 °F 57% 30.33 in 10.0 mi Calm Calm - N/A   Clear
12:15 PM 50.0 °F - 32.0 °F 50% 30.31 in 10.0 mi Calm Calm - N/A   Clear
12:35 PM 50.0 °F - 32.0 °F 50% 30.30 in 10.0 mi Calm Calm - N/A   Clear
12:55 PM 51.8 °F - 32.0 °F 47% 30.29 in 10.0 mi Calm Calm - N/A   Clear
1:15 PM 53.6 °F - 32.0 °F 44% 30.28 in 10.0 mi Calm Calm - N/A   Clear
1:35 PM 53.6 °F - 33.8 °F 47% 30.28 in 10.0 mi Calm Calm - N/A   Clear
1:55 PM 53.6 °F - 32.0 °F 44% 30.27 in 10.0 mi Calm Calm - N/A   Clear
2:15 PM 53.6 °F - 33.8 °F 47% 30.27 in 10.0 mi Calm Calm - N/A   Clear
2:35 PM 53.6 °F - 32.0 °F 44% 30.25 in 10.0 mi East 4.6 mph - N/A   Clear
2:55 PM 53.6 °F - 32.0 °F 44% 30.25 in 10.0 mi ESE 3.5 mph - N/A   Clear
3:15 PM 55.4 °F - 32.0 °F 41% 30.25 in 10.0 mi Calm Calm - N/A   Clear
3:35 PM 53.6 °F - 32.0 °F 44% 30.24 in 10.0 mi Calm Calm - N/A   Clear
3:55 PM 53.6 °F - 32.0 °F 44% 30.24 in 10.0 mi Calm Calm - N/A   Clear
4:15 PM 53.6 °F - 32.0 °F 44% 30.24 in 10.0 mi Calm Calm - N/A   Clear
4:35 PM 53.6 °F - 32.0 °F 44% 30.24 in 10.0 mi Calm Calm - N/A   Clear
4:55 PM 51.8 °F - 32.0 °F 47% 30.24 in 10.0 mi Calm Calm - N/A   Clear
5:15 PM 50.0 °F - 33.8 °F 54% 30.23 in 10.0 mi Calm Calm - N/A   Clear
5:35 PM 48.2 °F - 33.8 °F 58% 30.23 in 10.0 mi Calm Calm - N/A   Clear
5:55 PM 46.4 °F - 33.8 °F 62% 30.23 in 10.0 mi Calm Calm - N/A   Scattered Clouds
6:15 PM 46.4 °F 45.2 °F 33.8 °F 62% 30.22 in 10.0 mi ESE 3.5 mph - N/A   Mostly Cloudy
6:35 PM 46.4 °F 44.3 °F 33.8 °F 62% 30.22 in 10.0 mi East 4.6 mph - N/A   Mostly Cloudy
6:55 PM 46.4 °F - 33.8 °F 62% 30.22 in 10.0 mi Calm Calm - N/A   Scattered Clouds
7:15 PM 46.4 °F - 33.8 °F 62% 30.22 in 10.0 mi Calm Calm - N/A   Scattered Clouds
7:35 PM 46.4 °F 45.2 °F 33.8 °F 62% 30.21 in 10.0 mi ESE 3.5 mph - N/A   Mostly Cloudy
7:55 PM 50.0 °F - 32.0 °F 50% 30.21 in 10.0 mi Calm Calm - N/A   Overcast
8:15 PM 46.4 °F 45.2 °F 32.0 °F 57% 30.21 in 10.0 mi ESE 3.5 mph - N/A   Mostly Cloudy
8:35 PM 50.0 °F - 32.0 °F 50% 30.21 in 10.0 mi Calm Calm - N/A   Scattered Clouds
8:55 PM 46.4 °F - 32.0 °F 57% 30.21 in 10.0 mi Calm Calm - N/A   Scattered Clouds
9:15 PM 46.4 °F - 32.0 °F 57% 30.20 in 10.0 mi Calm Calm - N/A   Scattered Clouds
9:35 PM 46.4 °F - 32.0 °F 57% 30.20 in 10.0 mi Calm Calm - N/A   Clear
9:55 PM 44.6 °F - 32.0 °F 61% 30.19 in 10.0 mi Calm Calm - N/A   Clear
10:15 PM 44.6 °F 43.1 °F 32.0 °F 61% 30.19 in 10.0 mi SE 3.5 mph - N/A   Clear
10:35 PM 46.4 °F 45.2 °F 32.0 °F 57% 30.17 in 10.0 mi SE 3.5 mph - N/A   Scattered Clouds
10:55 PM 48.2 °F - 32.0 °F 54% 30.17 in 10.0 mi Calm Calm - N/A   Clear
11:15 PM 46.4 °F - 32.0 °F 57% 30.17 in 10.0 mi Calm Calm - N/A   Clear
11:55 PM 44.6 °F - 32.0 °F 61% 30.17 in 10.0 mi Calm Calm - N/A   Overcast